CW2026 Weather Reports


Display with metric or nautical units.
time (UTC)temp
F
wind
direction
speed
MPH
gust
MPH
rain 1hr
in
rain 24hr
in
rain mn
in
humidity
%
barometer
mb
20260505100021 43 198 0.0 3.0 0.00 0.03 0.00 94 1008.6
20260505094526 42 198 0.0 3.0 0.00 0.03 0.00 94 1008.6
20260505093034 42 198 0.0 0.0 0.00 0.03 0.00 94 1008.4
20260505091514 42 192 0.0 0.0 0.00 0.03 0.00 94 1008.2
20260505090021 42 193 0.0 0.0 0.00 0.03 0.00 94 1008.2
20260505084528 42 193 0.0 2.0 0.00 0.03 0.00 94 1008.3
20260505083025 42 192 0.0 2.0 0.00 0.03 0.00 94 1008.1
20260505081512 42 194 0.0 4.0 0.00 0.03 0.00 94 1008.3
20260505080024 42 193 0.0 2.0 0.00 0.03 0.00 94 1008.3
20260505074519 42 185 0.0 1.0 0.00 0.03 0.00 93 1008.6
20260505073023 43 188 0.0 0.0 0.00 0.03 0.00 93 1008.5
20260505071526 43 186 0.0 0.0 0.00 0.03 0.00 93 1008.6
20260505070022 43 186 0.0 0.0 0.00 0.03 0.00 94 1008.4
20260505064519 43 186 0.0 0.0 0.00 0.03 0.00 94 1008.3
20260505063021 43 186 0.0 0.0 0.00 0.03 0.00 94 1008.3
20260505061523 44 188 0.0 5.0 0.00 0.03 0.00 94 1008.4
20260505060009 44 159 1.0 5.0 0.00 0.03 0.00 93 1008.2
20260505054513 44 165 0.0 2.0 0.00 0.03 0.00 94 1008.3
20260505053007 45 360 0.0 0.0 0.00 0.03 0.00 91 1008.3
20260505051505 45 360 0.0 0.0 0.00 0.03 0.00 93 1008.1
20260505041520 44 273 0.0 0.0 0.00 0.03 0.00 93 1008.5
20260505040011 44 273 0.0 0.0 0.00 0.03 0.00 93 1008.3
20260505034510 45 273 0.0 0.0 0.00 0.03 0.03 92 1008.6
20260505033015 45 273 0.0 3.0 0.00 0.03 0.03 92 1008.6
20260505031520 45 175 0.0 0.0 0.00 0.03 0.03 91 1008.8
20260505030020 45 175 0.0 1.0 0.00 0.03 0.03 91 1008.5
20260505024508 45 178 0.0 0.0 0.00 0.03 0.03 91 1008.6
20260505023013 44 178 1.0 9.0 0.00 0.03 0.03 92 1008.6
20260505021514 44 298 0.0 0.0 0.00 0.03 0.03 91 1008.1
20260505020031 44 298 0.0 0.0 0.00 0.03 0.03 91 1008.2
20260505014523 46 282 0.0 0.0 0.00 0.03 0.03 89 1008.1
20260505013006 46 281 0.0 0.0 0.00 0.03 0.03 89 1008.1
20260505011512 47 281 0.0 0.0 0.00 0.03 0.03 88 1007.9
20260505010018 47 281 0.0 0.0 0.00 0.03 0.03 87 1007.8
20260505004522 49 281 0.0 0.0 0.00 0.03 0.03 84 1007.8
20260505003026 50 281 0.0 0.0 0.00 0.03 0.03 82 1007.4
20260505001508 51 281 0.0 0.0 0.00 0.03 0.03 81 1007.1
20260505000014 51 281 0.0 0.0 0.00 0.03 0.03 80 1006.9
20260504234519 53 281 0.0 0.0 0.00 0.03 0.03 77 1006.5
20260504233022 53 281 0.0 0.0 0.00 0.03 0.03 75 1006.4
20260504231528 53 281 0.0 2.0 0.00 0.03 0.03 75 1006.2
20260504230012 54 282 0.0 6.0 0.00 0.03 0.03 74 1006.0
20260504224518 54 278 1.0 8.0 0.00 0.03 0.03 73 1005.8
20260504223020 54 323 1.0 12.0 0.00 0.03 0.03 72 1005.6
20260504221528 55 296 1.0 11.0 0.00 0.03 0.03 70 1005.5
20260504220041 55 313 0.0 10.0 0.00 0.03 0.03 71 1005.6
20260504214528 55 266 7.0 13.0 0.00 0.03 0.03 70 1005.3
20260504213016 55 330 3.0 16.0 0.00 0.03 0.03 68 1005.2
20260504211528 56 249 2.0 10.0 0.00 0.03 0.03 68 1004.9
20260504210026 55 286 2.0 13.0 0.00 0.03 0.03 70 1004.9
20260504204537 55 262 2.0 12.0 0.00 0.03 0.03 70 1004.8
20260504203029 55 292 1.0 8.0 0.00 0.03 0.03 71 1004.6
20260504201518 54 306 0.0 7.0 0.00 0.03 0.03 75 1004.8
20260504200024 54 313 1.0 8.0 0.00 0.03 0.03 76 1004.8
20260504194527 55 279 2.0 12.0 0.00 0.04 0.03 74 1004.7
20260504193003 54 284 5.0 12.0 0.00 0.04 0.03 76 1004.8
20260504191505 53 290 2.0 11.0 0.00 0.05 0.03 81 1004.7
20260504190011 51 287 2.0 9.0 0.01 0.05 0.03 85 1004.9
20260504184522 51 248 1.0 8.0 0.03 0.06 0.03 89 1005.1
20260504183010 50 277 0.0 7.0 0.03 0.07 0.03 88 1005.0
20260504181511 49 304 1.0 7.0 0.03 0.08 0.03 89 1005.3
20260504180010 50 298 5.0 15.0 0.02 0.09 0.02 83 1005.4
20260504174512 54 287 9.0 23.0 0.00 0.08 0.00 69 1005.2
20260504173008 55 300 7.0 16.0 0.00 0.11 0.00 60 1004.2
20260504171512 58 266 4.0 15.0 0.00 0.12 0.00 48 1004.0